| time (UTC) | temp F | wind direction | speed MPH | gust MPH | rain 1hr in | rain 24hr in | rain mn in | humidity % | barometer mb |
| 20260510224606 | 68 | 332 | 2.0 | 7.0 | 0.00 | 0.00 | 0.00 | 37 | 1021.1 |
| 20260510223052 | 69 | 330 | 1.0 | 9.0 | 0.00 | 0.00 | 0.00 | 35 | 1021.1 |
| 20260510221553 | 68 | 323 | 3.0 | 8.0 | 0.00 | 0.00 | 0.00 | 34 | 1021.2 |
| 20260510220049 | 68 | 309 | 2.0 | 6.0 | 0.00 | 0.00 | 0.00 | 36 | 1021.1 |
| 20260510214548 | 68 | 2 | 4.0 | 11.0 | 0.00 | 0.00 | 0.00 | 35 | 1021.0 |
| 20260510213101 | 69 | 34 | 4.0 | 8.0 | 0.00 | 0.00 | 0.00 | 36 | 1020.9 |
| 20260510211621 | 69 | 330 | 3.0 | 8.0 | 0.00 | 0.00 | 0.00 | 35 | 1020.9 |
| 20260510210048 | 68 | 335 | 4.0 | 9.0 | 0.00 | 0.00 | 0.00 | 37 | 1021.1 |
| 20260510204543 | 68 | 359 | 4.0 | 12.0 | 0.00 | 0.00 | 0.00 | 37 | 1021.1 |
| 20260510203041 | 67 | 359 | 4.0 | 10.0 | 0.00 | 0.00 | 0.00 | 36 | 1021.2 |
| 20260510201541 | 67 | 333 | 4.0 | 10.0 | 0.00 | 0.00 | 0.00 | 39 | 1021.5 |
| 20260510200037 | 66 | 48 | 2.0 | 9.0 | 0.00 | 0.00 | 0.00 | 42 | 1021.7 |
| 20260510194543 | 65 | 317 | 3.0 | 10.0 | 0.00 | 0.00 | 0.00 | 39 | 1021.8 |
| 20260510193032 | 65 | 283 | 2.0 | 7.0 | 0.00 | 0.00 | 0.00 | 39 | 1021.8 |
| 20260510191552 | 65 | 75 | 3.0 | 8.0 | 0.00 | 0.00 | 0.00 | 42 | 1021.8 |
| 20260510190038 | 65 | 70 | 3.0 | 10.0 | 0.00 | 0.00 | 0.00 | 43 | 1022.0 |
| 20260510184531 | 64 | 23 | 2.0 | 10.0 | 0.00 | 0.00 | 0.00 | 43 | 1022.1 |
| 20260510183029 | 64 | 319 | 4.0 | 8.0 | 0.00 | 0.00 | 0.00 | 42 | 1022.1 |
| 20260510181528 | 63 | 356 | 3.0 | 11.0 | 0.00 | 0.00 | 0.00 | 42 | 1022.1 |
| 20260510180033 | 63 | 324 | 3.0 | 9.0 | 0.00 | 0.00 | 0.00 | 42 | 1022.1 |
| 20260510174528 | 62 | 67 | 3.0 | 8.0 | 0.00 | 0.00 | 0.00 | 43 | 1022.2 |
| 20260510173028 | 62 | 354 | 1.0 | 9.0 | 0.00 | 0.00 | 0.00 | 45 | 1022.4 |
| 20260510171526 | 62 | 10 | 2.0 | 6.0 | 0.00 | 0.00 | 0.00 | 43 | 1022.3 |
| 20260510170031 | 62 | 5 | 2.0 | 7.0 | 0.00 | 0.00 | 0.00 | 42 | 1022.4 |
| 20260510164525 | 62 | 30 | 3.0 | 7.0 | 0.00 | 0.00 | 0.00 | 42 | 1022.1 |
| 20260510163025 | 62 | 60 | 2.0 | 7.0 | 0.00 | 0.00 | 0.00 | 42 | 1022.2 |
| 20260510161524 | 60 | 32 | 2.0 | 6.0 | 0.00 | 0.00 | 0.00 | 47 | 1022.1 |
| 20260510160022 | 59 | 69 | 5.0 | 9.0 | 0.00 | 0.00 | 0.00 | 44 | 1021.8 |
| 20260510154521 | 59 | 26 | 2.0 | 6.0 | 0.00 | 0.00 | 0.00 | 48 | 1021.9 |
| 20260510153020 | 58 | 37 | 1.0 | 4.0 | 0.00 | 0.00 | 0.00 | 50 | 1022.1 |
| 20260510151518 | 58 | 6 | 1.0 | 6.0 | 0.00 | 0.00 | 0.00 | 50 | 1021.8 |
| 20260510150016 | 58 | 22 | 4.0 | 9.0 | 0.00 | 0.00 | 0.00 | 47 | 1021.3 |
| 20260510144528 | 57 | 34 | 3.0 | 7.0 | 0.00 | 0.00 | 0.00 | 49 | 1021.3 |
| 20260510143027 | 57 | 360 | 3.0 | 8.0 | 0.00 | 0.00 | 0.00 | 50 | 1021.2 |
| 20260510141512 | 56 | 61 | 3.0 | 8.0 | 0.00 | 0.00 | 0.00 | 51 | 1021.0 |
| 20260510140011 | 56 | 30 | 2.0 | 7.0 | 0.00 | 0.00 | 0.00 | 52 | 1021.1 |
| 20260510134511 | 55 | 77 | 4.0 | 6.0 | 0.00 | 0.00 | 0.00 | 52 | 1021.3 |
| 20260510133009 | 55 | 13 | 2.0 | 7.0 | 0.00 | 0.00 | 0.00 | 52 | 1020.9 |
| 20260510131506 | 55 | 65 | 3.0 | 6.0 | 0.00 | 0.00 | 0.00 | 51 | 1020.7 |
| 20260510130009 | 56 | 18 | 2.0 | 7.0 | 0.00 | 0.00 | 0.00 | 51 | 1020.5 |
| 20260510124504 | 55 | 349 | 3.0 | 6.0 | 0.00 | 0.00 | 0.00 | 53 | 1020.3 |
| 20260510123101 | 54 | 351 | 1.0 | 7.0 | 0.00 | 0.00 | 0.00 | 54 | 1020.0 |
| 20260510121556 | 54 | 359 | 3.0 | 6.0 | 0.00 | 0.00 | 0.00 | 53 | 1019.5 |
| 20260510120054 | 54 | 38 | 2.0 | 6.0 | 0.00 | 0.00 | 0.00 | 52 | 1019.3 |
| 20260510114552 | 54 | 12 | 2.0 | 8.0 | 0.00 | 0.00 | 0.00 | 52 | 1019.0 |
| 20260510113048 | 54 | 6 | 2.0 | 8.0 | 0.00 | 0.00 | 0.00 | 52 | 1018.4 |
| 20260510111546 | 55 | 347 | 3.0 | 6.0 | 0.00 | 0.00 | 0.00 | 52 | 1018.4 |
| 20260510110048 | 55 | 18 | 4.0 | 8.0 | 0.00 | 0.00 | 0.00 | 52 | 1018.1 |
| 20260510104540 | 56 | 28 | 3.0 | 9.0 | 0.00 | 0.00 | 0.00 | 53 | 1017.5 |
| 20260510103036 | 57 | 18 | 4.0 | 8.0 | 0.00 | 0.00 | 0.00 | 52 | 1017.7 |
| 20260510101534 | 58 | 359 | 4.0 | 10.0 | 0.00 | 0.00 | 0.00 | 51 | 1017.3 |
| 20260510100030 | 58 | 53 | 4.0 | 8.0 | 0.00 | 0.00 | 0.00 | 52 | 1017.3 |
| 20260510094543 | 58 | 15 | 3.0 | 9.0 | 0.00 | 0.00 | 0.00 | 53 | 1017.0 |
| 20260510093024 | 59 | 44 | 4.0 | 8.0 | 0.00 | 0.00 | 0.00 | 55 | 1016.8 |
| 20260510091525 | 59 | 23 | 3.0 | 8.0 | 0.00 | 0.00 | 0.00 | 57 | 1016.7 |
| 20260510090019 | 59 | 4 | 1.0 | 7.0 | 0.00 | 0.00 | 0.00 | 58 | 1016.7 |
| 20260510084516 | 60 | 354 | 2.0 | 9.0 | 0.00 | 0.00 | 0.00 | 59 | 1016.3 |
| 20260510083013 | 60 | 70 | 3.0 | 7.0 | 0.00 | 0.00 | 0.00 | 62 | 1016.0 |
| 20260510081515 | 60 | 358 | 2.0 | 7.0 | 0.00 | 0.00 | 0.00 | 65 | 1015.8 |
| 20260510080013 | 60 | 14 | 3.0 | 8.0 | 0.00 | 0.00 | 0.00 | 66 | 1015.5 |
| 20260510074508 | 59 | 5 | 2.0 | 5.0 | 0.00 | 0.00 | 0.00 | 70 | 1015.3 |
| 20260510073008 | 59 | 20 | 2.0 | 6.0 | 0.00 | 0.00 | 0.00 | 70 | 1015.0 |
| 20260510071506 | 59 | 359 | 1.0 | 5.0 | 0.00 | 0.00 | 0.00 | 70 | 1015.2 |
| 20260510070005 | 59 | 324 | 1.0 | 4.0 | 0.00 | 0.00 | 0.00 | 70 | 1015.2 |
| 20260510064602 | 60 | 359 | 1.0 | 3.0 | 0.00 | 0.00 | 0.00 | 69 | 1014.7 |
| 20260510063058 | 61 | 303 | 1.0 | 7.0 | 0.00 | 0.00 | 0.00 | 67 | 1014.7 |
| 20260510061554 | 61 | 360 | 2.0 | 4.0 | 0.00 | 0.00 | 0.00 | 66 | 1014.3 |
| 20260510060053 | 62 | 347 | 0.0 | 3.0 | 0.00 | 0.00 | 0.00 | 67 | 1014.3 |
| 20260510054549 | 63 | 339 | 1.0 | 6.0 | 0.00 | 0.00 | 0.00 | 65 | 1014.2 |
| 20260510053058 | 64 | 359 | 2.0 | 6.0 | 0.00 | 0.00 | 0.00 | 63 | 1014.2 |
| 20260510051549 | 64 | 312 | 0.0 | 2.0 | 0.00 | 0.00 | 0.00 | 62 | 1014.3 |
| 20260510050042 | 65 | 311 | 0.0 | 1.0 | 0.00 | 0.00 | 0.00 | 63 | 1014.0 |
| 20260510044538 | 65 | 311 | 1.0 | 4.0 | 0.00 | 0.00 | 0.00 | 61 | 1013.4 |
| 20260510043045 | 66 | 321 | 0.0 | 3.0 | 0.00 | 0.00 | 0.00 | 60 | 1013.1 |
| 20260510041535 | 66 | 332 | 2.0 | 4.0 | 0.00 | 0.00 | 0.00 | 60 | 1013.0 |
| 20260510040039 | 66 | 318 | 0.0 | 1.0 | 0.00 | 0.00 | 0.00 | 59 | 1012.7 |
| 20260510034530 | 67 | 349 | 0.0 | 2.0 | 0.00 | 0.00 | 0.00 | 58 | 1012.4 |
| 20260510033029 | 67 | 359 | 0.0 | 4.0 | 0.00 | 0.00 | 0.00 | 56 | 1012.1 |
| 20260510031527 | 68 | 12 | 0.0 | 0.0 | 0.00 | 0.00 | 0.00 | 55 | 1011.8 |
| 20260510030025 | 68 | 12 | 0.0 | 4.0 | 0.00 | 0.00 | 0.00 | 55 | 1011.5 |
| 20260510024522 | 69 | 11 | 0.0 | 3.0 | 0.00 | 0.00 | 0.00 | 53 | 1011.2 |
| 20260510023021 | 69 | 17 | 0.0 | 1.0 | 0.00 | 0.00 | 0.00 | 53 | 1011.1 |
| 20260510021531 | 70 | 20 | 0.0 | 4.0 | 0.00 | 0.00 | 0.00 | 52 | 1010.8 |
| 20260510020017 | 70 | 359 | 1.0 | 5.0 | 0.00 | 0.00 | 0.00 | 52 | 1010.8 |
| 20260510014519 | 71 | 359 | 1.0 | 6.0 | 0.00 | 0.00 | 0.00 | 52 | 1010.4 |
| 20260510013022 | 72 | 2 | 3.0 | 8.0 | 0.00 | 0.00 | 0.00 | 50 | 1009.8 |
| 20260510011514 | 72 | 326 | 2.0 | 7.0 | 0.00 | 0.00 | 0.00 | 51 | 1009.7 |
| 20260510010013 | 73 | 345 | 2.0 | 7.0 | 0.00 | 0.00 | 0.00 | 51 | 1009.5 |
| 20260510004517 | 73 | 316 | 2.0 | 5.0 | 0.00 | 0.00 | 0.00 | 49 | 1009.2 |
| 20260510003012 | 74 | 350 | 3.0 | 7.0 | 0.00 | 0.00 | 0.00 | 47 | 1008.9 |
| 20260510001511 | 75 | 321 | 3.0 | 11.0 | 0.00 | 0.00 | 0.00 | 47 | 1008.7 |
| 20260510000010 | 76 | 340 | 6.0 | 14.0 | 0.00 | 0.00 | 0.00 | 44 | 1008.8 |
| 20260509234510 | 78 | 325 | 6.0 | 14.0 | 0.00 | 0.00 | 0.00 | 42 | 1008.6 |
| 20260509233009 | 78 | 314 | 3.0 | 9.0 | 0.00 | 0.00 | 0.00 | 44 | 1008.5 |
| 20260509231506 | 78 | 319 | 2.0 | 9.0 | 0.00 | 0.00 | 0.00 | 43 | 1008.3 |
| 20260509230008 | 78 | 290 | 4.0 | 8.0 | 0.00 | 0.00 | 0.00 | 43 | 1008.3 |